{"data":{"norad_id":63213,"epoch":"2026-09-19T23:01:03.804384Z","epoch_age_seconds":60964,"freshness":"FRESH","line1":"1 63213U 25052D   26262.95907181  .00014116  00000+0  38323-3 0  9991","line2":"2 63213  97.3757 159.6486 0004446 109.3415 250.8311 15.37696233 84664","mean_motion":15.37696233,"eccentricity":0.0004446,"inclination_deg":97.3757,"raan_deg":159.6486,"arg_perigee_deg":109.3415,"mean_anomaly_deg":250.8311,"bstar":0.00038323,"rev_number":8466,"period_min":93.646584357601,"perigee_km":449.88655671951,"apogee_km":455.96073584618,"semimajor_km":6831.0606462828,"source":"CELESTRAK","updated_at":"2026-09-20T09:00:45.242662Z"}}